Home   Weather   Lautoka   Past weeks

Flag for Fiji Past Weather in Lautoka, Fiji — Yesterday and Last 2 Weeks

Now
86 °F

Scattered clouds.


Feels Like: 93 °F
Forecast: 78 / 90 °F
Wind: 10 mph from West

Location: Nandi

Current Time: Apr 29, 2017 at 3:44:33 pm

Latest Report: Apr 29, 2017 at 3:00 pm


Visibility: N/A

Pressure: 29.77 "Hg

Humidity: 66%

Dew Point: 73 °F

Location of LautokaLocation

Past Weather in Lautoka — Graph

°F

Lautoka Temperature Yesterday

Maximum temperature yesterday: 86 °F (at 10:00 am)
Minimum temperature yesterday: 72 °F (at 5:00 am)
Average temperature yesterday: 80 °F

High & Low Weather Summary for the Past Weeks

 TemperatureHumidityPressure
High90 °F (Apr 18, 2:00 pm)100% (Apr 27, 7:25 pm)29.95 "Hg (Apr 27, 7:25 pm)
Low70 °F (Apr 16, 5:00 am)46% (Apr 18, 4:00 pm)29.74 "Hg (Apr 14, 2:00 pm)
Average80 °F78%29.86 "Hg
* Reported Apr 14 2:00 pm — Apr 29 2:00 pm, Lautoka, Weather by CustomWeather, © 2017

Note: Actual official high and low records may vary slightly from our data, if they occured in-between our weather recording intervals... More about our weather records

Advertising

Lautoka Weather History for the Previous 24 Hours

Scroll right to see more
 ConditionsComfort  
Time TempWeatherWind HumidityBarometerVisibility
2:00 pm
Sat, Apr 29
86 °FScattered clouds.12 mph66%29.80 "HgN/A
1:00 pm86 °FScattered clouds.12 mph66%29.80 "HgN/A
12:00 pm86 °FScattered clouds.10 mph66%29.83 "HgN/A
11:00 am86 °FScattered clouds.8 mph66%29.86 "HgN/A
10:00 am86 °FPassing clouds.5 mph62%29.86 "HgN/A
9:00 am84 °FPassing clouds.5 mph70%29.86 "HgN/A
8:00 am81 °FPassing clouds.3 mph79%29.86 "HgN/A
7:00 am75 °FPassing clouds.6 mph89%29.83 "HgN/A
6:00 am73 °FPassing clouds.3 mph94%29.83 "HgN/A
5:00 am73 °FPassing clouds.5 mph94%29.83 "HgN/A
4:00 am75 °FPassing clouds.5 mph89%29.83 "HgN/A
3:00 am75 °FPassing clouds.5 mph89%29.83 "HgN/A
2:00 am75 °FPassing clouds.3 mph94%29.86 "HgN/A
1:00 am75 °FPassing clouds.3 mph94%29.86 "HgN/A
12:00 am77 °FPassing clouds.3 mph89%29.89 "HgN/A
11:00 pm
Fri, Apr 28
79 °FPassing clouds.6 mph84%29.89 "HgN/A
10:00 pm81 °FPassing clouds.5 mph79%29.89 "HgN/A
9:00 pm81 °FPassing clouds.5 mph79%29.89 "HgN/A
8:00 pm81 °FPassing clouds.6 mph79%29.86 "HgN/A
7:00 pm81 °FPassing clouds.5 mph74%29.86 "HgN/A
6:00 pm82 °FPassing clouds.6 mph70%29.83 "HgN/A
5:00 pm84 °FScattered clouds.9 mph66%29.80 "HgN/A
4:00 pm86 °FScattered clouds.10 mph66%29.80 "HgN/A
3:00 pm86 °FScattered clouds.9 mph66%29.80 "HgN/A
Weather by CustomWeather, © 2017

See weather overviewHow to use our weather pages